Augusta, GA

12:10 PM EDT on July 23, 2016 (GMT -0400)
Daniel

Weather History for KDNL - October, 2012

Change the Weather History Date:

Tuesday, October 9, 2012

  Actual Average Record
Temperature  
Mean Temperature 61 °F -  
Max Temperature 70 °F 75 °F 91 °F (2007)
Min Temperature 51 °F 56 °F 39 °F (2000)
Degree Days  
Heating Degree Days 4    
Month to date heating degree days 11  
Growing Degree Days 10 (Base 50)    
Moisture  
Dew Point 48 °F    
Average Humidity 77    
Maximum Humidity 89    
Minimum Humidity 49    
Precipitation  
Precipitation T in - - ()
Month to date precipitation 0.83  
Year to date precipitation 39.35  
Sea Level Pressure  
Sea Level Pressure 30.13 in    
Wind  
Wind Speed 6 mph (North)    
Max Wind Speed 13 mph    
Max Gust Speed 16 mph    
Visibility 10 miles    
Events      
Averages and records for this station are not official NWS values.
T = Trace of Precipitation, MM = Missing Value Source: NWS Daily Summary

Daily Weather History Graph

Daily Weather History Graph

Search for Another Location

Airport or City:

Trip Planner

Search our weather history database for the weather conditions in past years. The results will help you decide how hot, cold, wet, or windy it might be!

Date:

Astronomy

Oct. 09, 2012 Rise Set
Actual Time 7:28 AM EDT 7:01 PM EDT
Civil Twilight 7:03 AM EDT 7:26 PM EDT
Nautical Twilight 6:34 AM EDT 7:55 PM EDT
Astronomical Twilight 6:06 AM EDT 8:23 PM EDT
Moon 1:21 AM EDT (10/9) 3:12 PM EDT (10/9)
Length of Visible Light 12h 22m
Length of Day
11h 32m
Last Quarter, 37% of the Moon is Illuminated
Oct 9
Last Quarter
Oct 15
New
Oct 21
First Quarter
Oct 29
Full
Nov 6
Last Quarter

Hourly Weather History & Observations

Time (EDT) Temp. Dew Point Humidity Pressure Visibility Wind Dir Wind Speed Gust Speed Precip Events Conditions
12:53 AM 54.0 °F 50.0 °F 86% 30.13 in 10.0 mi North 4.6 mph - N/A   Overcast
1:53 AM 53.1 °F 48.9 °F 86% 30.14 in 10.0 mi North 5.8 mph - N/A   Overcast
2:53 AM 53.1 °F 48.9 °F 86% 30.13 in 10.0 mi North 5.8 mph - N/A   Overcast
3:53 AM 53.1 °F 48.0 °F 83% 30.12 in 10.0 mi North 6.9 mph - N/A   Overcast
4:19 AM 51.8 °F 48.2 °F 88% 30.13 in 10.0 mi North 6.9 mph - N/A   Overcast
4:53 AM 52.0 °F 48.9 °F 89% 30.12 in 6.0 mi North 6.9 mph - N/A   Overcast
5:09 AM 51.8 °F 48.2 °F 88% 30.13 in 7.0 mi North 5.8 mph - 0.00 in   Overcast
5:36 AM 51.8 °F 48.2 °F 88% 30.13 in 10.0 mi North 6.9 mph - 0.00 in   Overcast
5:45 AM 51.8 °F 48.2 °F 88% 30.14 in 10.0 mi North 6.9 mph - 0.00 in   Overcast
5:53 AM 51.1 °F 48.0 °F 89% 30.14 in 10.0 mi North 6.9 mph - 0.00 in   Overcast
6:00 AM 51.8 °F 48.2 °F 88% 30.14 in 10.0 mi North 6.9 mph - N/A   Overcast
6:19 AM 51.8 °F 48.2 °F 88% 30.14 in 10.0 mi NNW 4.6 mph - N/A   Overcast
6:33 AM 51.8 °F 48.2 °F 88% 30.15 in 10.0 mi North 6.9 mph - N/A   Overcast
6:48 AM 51.8 °F 46.4 °F 82% 30.15 in 10.0 mi North 8.1 mph - N/A   Overcast
7:33 AM 51.8 °F 48.2 °F 88% 30.16 in 10.0 mi North 6.9 mph - N/A   Overcast
7:53 AM 51.1 °F 46.9 °F 86% 30.16 in 10.0 mi NNE 8.1 mph - N/A   Overcast
8:53 AM 52.0 °F 46.9 °F 83% 30.17 in 10.0 mi NNE 9.2 mph - N/A   Overcast
9:53 AM 53.1 °F 46.9 °F 80% 30.18 in 10.0 mi North 5.8 mph - N/A   Overcast
10:53 AM 54.0 °F 46.9 °F 77% 30.18 in 10.0 mi NNW 11.5 mph - N/A   Overcast
11:13 AM 55.4 °F 46.4 °F 72% 30.18 in 10.0 mi North 8.1 mph - N/A   Overcast
11:53 AM 57.9 °F 46.9 °F 67% 30.17 in 10.0 mi NNE 8.1 mph - N/A   Mostly Cloudy
12:12 PM 59.0 °F 48.2 °F 67% 30.17 in 10.0 mi NNW 8.1 mph - N/A   Partly Cloudy
12:53 PM 62.1 °F 48.0 °F 60% 30.14 in 10.0 mi NNE 8.1 mph - N/A   Partly Cloudy
1:53 PM 64.0 °F 48.0 °F 56% 30.12 in 10.0 mi ENE 5.8 mph - N/A   Partly Cloudy
2:53 PM 68.0 °F 48.9 °F 50% 30.09 in 10.0 mi Calm Calm - N/A   Partly Cloudy
3:53 PM 68.0 °F 48.0 °F 49% 30.09 in 10.0 mi WNW 6.9 mph - N/A   Scattered Clouds
4:53 PM 68.0 °F 48.9 °F 50% 30.08 in 10.0 mi North 8.1 mph - N/A   Partly Cloudy
5:53 PM 66.9 °F 48.9 °F 52% 30.08 in 10.0 mi NNE 5.8 mph - N/A   Clear
6:53 PM 63.0 °F 48.9 °F 60% 30.08 in 10.0 mi NNE 9.2 mph - N/A   Clear
7:53 PM 57.9 °F 48.0 °F 70% 30.10 in 10.0 mi NNE 10.4 mph - N/A   Clear
8:53 PM 55.0 °F 48.0 °F 77% 30.12 in 10.0 mi NNE 8.1 mph - N/A   Clear
9:53 PM 54.0 °F 46.9 °F 77% 30.13 in 10.0 mi NE 3.5 mph - N/A   Clear
10:53 PM 52.0 °F 46.9 °F 83% 30.14 in 10.0 mi East 5.8 mph - N/A   Clear
11:53 PM 52.0 °F 46.9 °F 83% 30.14 in 10.0 mi Calm Calm - N/A   Clear